Location: Moydans
(44.3997°N, 5.5038°E)
Time: 19:55:36
(UTC+01:00)

BlueWalker 3 - Visible Passes

Search period start: 08 December 2022 00:00
Search period end: 18 December 2022 00:00
Orbit: 501 x 518 km, 53.2° (Epoch: 08 December)

Date Brightness Start Highest point End Pass type
(mag) Time Alt. Az. Time Alt. Az. Time Alt. Az.
08 Dec 2.2 18:26:45 10° NW 18:30:33 47° NNE 18:31:51 33° ENE visible
08 Dec 4.8 20:05:38 10° WNW 20:06:41 17° W 20:06:41 17° W visible
09 Dec 2.2 18:08:20 10° NW 18:12:09 50° NNE 18:14:45 18° E visible
09 Dec 4.1 19:47:14 10° WNW 19:49:37 26° WSW 19:49:37 26° WSW visible
10 Dec 2.1 17:49:54 10° NW 17:53:44 52° NNE 17:57:32 10° ESE visible
10 Dec 3.7 19:28:52 10° WNW 19:32:14 28° SW 19:32:47 27° SSW visible
11 Dec 2.1 17:31:29 10° NW 17:35:19 55° NNE 17:39:09 10° ESE visible
11 Dec 4.0 19:10:30 10° WNW 19:13:47 26° SW 19:16:19 14° S visible
12 Dec 4.2 18:52:07 10° WNW 18:55:20 25° SW 18:58:32 10° S visible
13 Dec 4.4 18:33:45 10° WNW 18:36:53 23° SW 18:39:59 10° S visible
14 Dec 4.6 18:15:22 10° W 18:18:25 22° SW 18:21:26 10° S visible
15 Dec 4.9 17:57:00 10° W 17:59:57 21° SW 18:02:52 10° S visible
16 Dec 5.0 17:38:38 10° W 17:41:28 19° SW 17:44:17 10° S visible
